Home   Weather   San Bernardino   Past weeks

Flag for USA Past Weather in San Bernardino, California, USA — Yesterday and Last 2 Weeks

71 °F

Partly sunny.

Feels Like: 76 °F
Forecast: 58 / 82 °F
Wind: No wind

Location: Riverside Municipal Airport

Current Time: Oct 27, 2016 at 11:47:25 AM

Latest Report: Oct 27, 2016 at 10:53 AM

Visibility: 4 mi

Pressure: 29.96 "Hg

Humidity: 59%

Dew Point: 56 °F

Location of San BernardinoLocation

Past Weather in San Bernardino — Graph


San Bernardino Temperature Yesterday

Maximum temperature yesterday: 80 °F (at 1:53 PM)
Minimum temperature yesterday: 57 °F (at 4:53 AM)
Average temperature yesterday: 67 °F

High & Low Weather Summary for the Past Weeks

High95 °F (Oct 21, 1:53 PM)96% (Oct 14, 7:53 AM)30.11 "Hg (Oct 14, 7:53 AM)
Low54 °F (Oct 13, 3:53 AM)5% (Oct 20, 2:53 PM)29.77 "Hg (Oct 21, 4:53 PM)
Average68 °F57%29.95 "Hg
* Reported Oct 12 10:00 AM — Oct 27 9:53 AM, San Bernardino, Weather by CustomWeather, © 2016

Note: Actual official high and low records may vary slightly from our data, if they occured in-between our weather recording intervals... More about our weather records


San Bernardino Weather History for the Previous 24 Hours

Scroll right to see more
Time TempWeatherWind HumidityBarometerVisibility
9:53 AM
Thu, Oct 27
68 °FPartly sunny.No wind63%29.98 "Hg5 mi
8:53 AM61 °FPartly sunny.No wind81%29.98 "Hg6 mi
7:53 AM60 °FPartly sunny.No wind80%29.97 "Hg6 mi
6:53 AM60 °FClear.5 mph83%29.94 "Hg7 mi
5:53 AM59 °FFog.5 mph87%29.93 "Hg6 mi
4:53 AM60 °FFog.3 mph86%29.94 "Hg6 mi
3:53 AM61 °FClear.No wind87%29.94 "Hg7 mi
2:53 AM61 °FClear.No wind87%29.95 "Hg7 mi
1:53 AM62 °FClear.3 mph83%29.95 "Hg7 mi
12:53 AM64 °FClear.No wind78%29.96 "Hg9 mi
11:53 PM
Wed, Oct 26
63 °FClear.No wind81%29.97 "Hg8 mi
10:53 PM65 °FClear.No wind78%29.98 "Hg9 mi
9:53 PM67 °FClear.3 mph71%29.96 "Hg9 mi
8:53 PM69 °FClear.No wind66%29.95 "Hg10 mi
7:53 PM70 °FClear.No wind64%29.95 "Hg10 mi
6:53 PM73 °FPassing clouds.No wind57%29.93 "Hg10 mi
5:53 PM75 °FPartly sunny.3 mph54%29.92 "Hg9 mi
4:53 PM78 °FPartly sunny.9 mph46%29.92 "Hg8 mi
3:53 PM80 °FPartly sunny.12 mph42%29.93 "Hg7 mi
2:53 PM80 °FPartly sunny.9 mph44%29.93 "Hg7 mi
1:53 PM80 °FPartly sunny.7 mph38%29.94 "Hg7 mi
12:53 PM78 °FScattered clouds.6 mph39%29.98 "Hg8 mi
11:53 AM74 °FScattered clouds.No wind50%30.01 "Hg6 mi
Weather by CustomWeather, © 2016

See weather overviewHow to use our weather pages